Flag for Pakistan Weather past 2 weeks in Narowal, Pakistan

Now
70 °F

Passing clouds.


Feels Like: 70 °F
Forecast: 64 / 83 °F
Wind: 2 mph from North

Location: Amritsar Airport


UV Index: 5 (Moderate)

Visibility: 3 mi


Pressure: 29.80 "Hg

Humidity: 78%

Dew point: 63 °F

Location of NarowalLocation

Historic Weather in Narowal

°F

Narowal temperature yesterday

Maximum temperature yesterday: 88 °F (at 1:30 PM)
Minimum temperature yesterday: 63 °F (at 5:00 AM)
Average temperature yesterday: 73 °F

Past Weeks' High & Low Weather Summary

 TemperatureHumidityPressure
High90 °F (Apr 12, 2:30 PM)100% (Apr 3, 3:00 AM)32.43 "Hg (Apr 3, 3:00 AM)
Low54 °F (Apr 3, 3:00 AM)21% (Apr 14, 12:30 PM)29.71 "Hg (Apr 17, 2:00 AM)
Average71 °F65%29.88 "Hg
* Reported Apr 2 9:00 PM — Apr 17 9:00 PM, Narowal, Weather by CustomWeather, © 2014

Note: Actual official high and low records may vary slightly from our data, if they occured in-between our weather recording intervals... More about our weather records

Advertising

Historic Weather Conditions — Data for Previous 24 hours

 ConditionsComfort  
Time TempWeatherWind HumidityBarometerVisibility
9:00 PM
Apr 17
70 °FPassing clouds.2 mph78%29.80 "Hg3 mi
8:30 PM70 °FPassing clouds.No wind78%29.80 "Hg3 mi
8:00 PM73 °FPassing clouds.No wind69%29.80 "Hg3 mi
6:30 PM75 °FScattered clouds.3 mph65%29.77 "Hg4 mi
6:00 PM77 °FPassing clouds.No wind61%29.77 "Hg4 mi
5:30 PM81 °FPassing clouds.2 mph51%29.74 "Hg4 mi
5:00 PM81 °FScattered clouds.2 mph51%29.74 "Hg4 mi
4:30 PM82 °FScattered clouds.5 mph42%29.77 "Hg4 mi
4:00 PM82 °FScattered clouds.2 mph42%29.77 "Hg4 mi
3:30 PM81 °FScattered clouds.2 mph45%29.77 "Hg3 mi
3:00 PM81 °FScattered clouds.3 mph48%29.77 "Hg3 mi
2:30 PM81 °FScattered clouds.5 mph51%29.77 "Hg3 mi
2:00 PM81 °FScattered clouds.6 mph48%29.77 "Hg3 mi
1:30 PM81 °FScattered clouds.9 mph48%29.80 "Hg3 mi
1:00 PM79 °FScattered clouds.9 mph51%29.80 "Hg3 mi
12:30 PM79 °FScattered clouds.8 mph54%29.83 "Hg3 mi
12:00 PM77 °FScattered clouds.10 mph54%29.83 "Hg3 mi
11:30 AM75 °FScattered clouds.10 mph61%29.83 "Hg3 mi
10:30 AM70 °FFog.8 mph73%29.83 "Hg3 mi
10:00 AM68 °FFog.9 mph78%29.80 "Hg2 mi
8:00 AM64 °FThunderstorms. More clouds than sun.3 mph88%29.83 "Hg2 mi
7:30 AM63 °FLight rain. More clouds than sun.No wind94%29.86 "Hg2 mi
7:00 AM63 °FLight rain. More clouds than sun.No wind94%29.86 "Hg2 mi
6:30 AM63 °FLight rain. More clouds than sun.No wind94%29.83 "Hg2 mi
6:00 AM63 °FLight rain. More clouds than sun.No wind94%29.86 "Hg2 mi
5:30 AM64 °FThunderstorms. Partly cloudy.10 mph83%29.86 "Hg2 mi
4:30 AM63 °FThunderstorms. Mostly cloudy.17 mph88%29.86 "Hg2 mi
4:00 AM63 °FThunderstorms. Mostly cloudy.21 mph88%29.86 "Hg2 mi
3:00 AM66 °FThunderstorms. Mostly cloudy.2 mph73%29.77 "Hg2 mi
2:30 AM64 °FFog.9 mph78%29.71 "Hg2 mi
2:00 AM64 °FFog.6 mph78%29.71 "Hg2 mi
1:30 AM63 °FFog.3 mph88%29.74 "Hg2 mi
1:00 AM64 °FFog.No wind83%29.77 "Hg2 mi
12:30 AM64 °FFog.2 mph78%29.77 "Hg2 mi
12:00 AM64 °FFog.No wind78%29.77 "Hg2 mi
11:30 PM
Apr 16
64 °FFog.No wind78%29.80 "Hg2 mi
11:00 PM66 °FFog.2 mph78%29.80 "Hg2 mi
10:30 PM66 °FPassing clouds.No wind78%29.80 "Hg3 mi
10:00 PM66 °FPartly cloudy.5 mph78%29.80 "Hg3 mi
Weather by CustomWeather, © 2014

See weather overview